Regional Weather Roundup
Issued by NWS

Home | Current Version | Previous Version | Graphics & Text | Print | Product List | Glossary On
Versions: 1 2 3 4 5 6 7 8 9 10 11 12 13 14 15 16 17 18 19 20 21 22 23 24 25 26 27 28 29 30 31 32 33 34 35 36 37 38 39 40 41 42 43 44 45 46 47 48 49 50
000
ASUS43 KLSX 271307
RWRMO

WEATHER SUMMARY FOR MISSOURI
NATIONAL WEATHER SERVICE SPRINGFIELD MO
800 AM CDT THU AUG 27 2015

NOTE: "FAIR" INDICATES FEW OR NO CLOUDS BELOW 12,000 FEET WITH NO
       SIGNIFICANT WEATHER AND/OR OBSTRUCTIONS TO VISIBILITY.
       CURRENT SKY AND/OR WEATHER CONDITIONS ARE NOT AVAILABLE FOR
       CHILLICOTHE AND FARMINGTON.

MOZ001>031-035>038-043-044-053-054-271400-
...NORTHERN AND WESTERN MISSOURI...

CITY           SKY/WX    TMP DP  RH WIND       PRES   REMARKS
KANSAS CTY INT CLOUDY    65  56  72 SE12      30.09R
KANSAS C DTWN  CLOUDY    69  57  65 S5        30.09S
LEE`S SUMMIT   PTSUNNY   67  55  65 S9        30.12R
ST JOSEPH      PTSUNNY   66  57  72 S5        30.07S
CHILLICOTHE      N/A     61  57  87 CALM      30.14R
KIRKSVILLE     SUNNY     60  56  86 SE8       30.16S

$$
MOZ066>068-077>081-088>096-101>105-271400-
...SOUTHWEST MISSOURI...

CITY           SKY/WX    TMP DP  RH WIND       PRES   REMARKS
SPRINGFIELD    SUNNY     64  55  72 SE13      30.14R
JOPLIN         CLOUDY    67  63  87 NW6       30.14R

$$
MOZ032>034-039>042-045>050-055>058-069>072-271400-
...CENTRAL MISSOURI...

CITY           SKY/WX    TMP DP  RH WIND       PRES   REMARKS
COLUMBIA       SUNNY     60  57  89 SE5       30.16R
JEFFERSON CITY SUNNY     59  56  89 SE5       30.15R
ROLLA          SUNNY     61  56  83 SE8       30.15R
SEDALIA        SUNNY     61  56  83 SE6       30.14S
WHITEMAN AFB   MOSUNNY   62  56  83 S6        30.12R
WARRENSBURG    SUNNY     61  54  77 SE5       30.13R
OSAGE BEACH    SUNNY     59  54  82 CALM      30.16R

$$
MOZ051-052-059>065-271400-
...EAST CENTRAL MISSOURI...

CITY           SKY/WX    TMP DP  RH WIND       PRES   REMARKS
ST LOUIS INTL  SUNNY     62  56  80 E7        30.17F
SPIRIT OF STL  SUNNY     60  58  92 E3        30.16F
ST CHARLES     SUNNY     60  58  92 E3        30.17F

$$
MOZ072>076-082>087-097>100-106>115-271400-
...SOUTH CENTRAL AND SOUTHEAST MISSOURI...

CITY           SKY/WX    TMP DP  RH WIND       PRES   REMARKS
CAPE GIRARDEAU SUNNY     59  59 100 W3        30.16S
FARMINGTON     SUNNY     57  55  94 SE3       30.21R
POPLAR BLUFF   SUNNY     63  59  87 N3        30.15R
WEST PLAINS    SUNNY     59  55  87 CALM      30.18R

$$


USA.gov is the U.S. government's official web portal to all federal, state and local government web resources and services.